Date,TemperatureHighF,TemperatureAvgF,TemperatureLowF,DewpointHighF,DewpointAvgF,DewpointLowF,HumidityHigh,HumidityAvg,HumidityLow,PressureMaxIn,PressureMinIn,WindSpeedMaxMPH,WindSpeedAvgMPH,GustSpeedMaxMPH,PrecipitationSumIn
2013-3-1,85.0,72.1,56.0,31.0,24.0,18.0,27,17,11,30.24,30.09,7,3,16,0.00
2013-3-2,82.0,69.1,56.0,40.0,30.1,24.0,55,24,14,30.15,30.03,6,2,11,0.00
2013-3-3,69.0,57.8,52.0,54.0,45.2,30.0,92,65,37,30.05,29.95,6,2,12,0.00
2013-3-4,64.0,56.1,51.0,52.0,50.1,48.0,92,81,63,30.06,29.98,7,2,15,0.00
2013-3-5,59.0,54.1,52.0,53.0,50.0,48.0,93,87,78,30.09,30.01,6,2,12,0.00
2013-3-6,62.0,55.0,49.0,49.0,45.6,42.0,88,71,52,30.11,29.98,8,3,14,0.00
2013-3-7,56.0,52.5,50.0,52.0,48.6,44.0,96,86,71,29.98,29.83,5,1,11,0.17
2013-3-8,57.0,50.9,46.0,48.0,45.1,42.0,96,81,57,30.01,29.74,12,3,22,0.59
2013-3-9,59.0,52.5,47.0,48.0,45.9,43.0,92,79,63,30.17,29.99,9,3,19,0.13
2013-3-10,71.0,56.2,43.0,53.0,40.2,-99.9,91,62,31,30.22,30.11,7,2,14,0.00
2013-3-11,73.0,59.3,47.0,53.0,43.2,32.0,90,58,31,30.14,30.00,5,1,10,0.00
2013-3-12,74.0,59.1,47.0,56.0,49.6,40.0,95,72,49,30.04,29.96,6,1,9,0.00
2013-3-13,80.0,58.9,51.0,58.0,50.6,44.0,96,76,46,30.06,29.98,3,1,8,0.00
2013-3-14,75.0,57.3,47.0,57.0,51.4,45.0,97,83,51,30.05,29.96,5,1,9,0.00
2013-3-15,70.0,55.2,48.0,57.0,51.6,47.0,98,89,62,30.00,29.91,6,1,10,0.00
2013-3-16,63.0,53.9,48.0,54.0,50.4,47.0,98,89,68,29.94,29.86,7,2,12,0.00
2013-3-17,65.0,56.0,52.0,54.0,51.2,49.0,95,85,67,29.96,29.89,6,2,12,0.00
2013-3-18,62.0,56.0,51.0,52.0,50.5,48.0,92,82,67,30.05,29.95,6,2,12,0.00
2013-3-19,65.0,56.4,50.0,54.0,51.4,47.0,94,84,67,30.08,30.01,6,2,12,0.00
2013-3-20,69.0,57.9,50.0,56.0,52.4,49.0,96,83,59,30.07,29.94,5,1,10,0.00
2013-3-21,66.0,57.7,51.0,55.0,51.7,48.0,93,81,55,29.94,29.78,7,2,13,0.00
2013-3-22,65.0,57.1,52.0,54.0,51.6,48.0,94,83,66,29.88,29.77,7,2,13,0.00
2013-3-23,67.0,56.6,49.0,54.0,50.8,46.0,92,81,62,29.98,29.86,6,2,13,0.00
2013-3-24,72.0,58.3,50.0,56.0,52.0,47.0,96,81,53,29.97,29.85,6,2,10,0.00
2013-3-25,73.0,58.7,50.0,58.0,53.1,47.0,98,83,55,29.93,29.85,5,1,9,0.00
2013-3-26,65.0,56.0,51.0,56.0,52.4,49.0,97,88,66,29.93,29.87,6,2,11,0.00
2013-3-27,63.0,56.5,53.0,54.0,51.5,50.0,93,83,69,30.01,29.89,8,2,14,0.00
2013-3-28,71.0,59.5,51.0,56.0,53.2,49.0,95,81,56,30.03,29.96,6,2,12,0.00
2013-3-29,66.0,58.3,54.0,58.0,54.4,52.0,95,88,71,30.07,30.00,6,2,11,0.00
2013-3-30,67.0,58.7,54.0,57.0,53.2,-99.9,95,86,68,30.09,30.02,6,2,12,0.00
2013-3-31,68.0,58.3,51.0,57.0,53.7,50.0,96,85,66,30.09,30.03,8,3,15,0.00